RÉSULTATS    Trail des 3 Garennes - Édition du 02/10/2016


Vous pouvez changer la distance ici.

Vous pouvez changer la distance ici.

Classement PDF Général Classement PDF Alphabétique /results/<span class='glyphicon glyphicon-picture'></span> Classement Temps Réel - Temps Puce

Chargement des statistiques en cours




Pos. Temps Nom - Prénom Club Dossard Catégorie km/h
26 01:50:12 COELHO Daniel USM OLIVET 772 V1M (12 / 26) 13.0
27 01:51:46 MENNECIER David CORROVENTA DESHUMIDIFICATION S 760 SEM (9 / 20) 12.8
28 01:52:03 PASCAL Jerome VERNEUIL SPORT 815 V1M (13 / 26) 12.8
29 01:52:56 PELLE Patrick AS DIOR 809 V2M (7 / 12) 12.7
30 01:53:18 CHATEIGNER Antoine TDA ARMEMENTS 753 SEM (10 / 20) 12.7
31 01:53:51 THOMAS Olivier 759 V1M (14 / 26) 12.6
32 01:54:15 ALVADO Etienne 806 SEM (11 / 20) 12.6
33 01:55:05 COILLARD Adrien 752 SEM (12 / 20) 12.5
34 01:55:42 FINET Julien 771 SEM (13 / 20) 12.4
35 01:55:44 LANGLOIS Nathalie FAY OXYGENE 785 V1F (1 / 4) 12.4
36 01:56:11 COURGEON Dominique LES FURETS D'EIFFAGE 793 V1M (15 / 26) 12.3
37 01:57:12 OUVRAT Angelique LES GAZELLES VINEUIL 789 V1F (2 / 4) 12.2
38 01:57:12 GHERBI Julien LES GAZELLES VINEUIL 790 SEM (14 / 20) 12.2
39 01:59:17 JEANNE Walter USM MONTARGIS 819 V1M (16 / 26) 12.0
40 01:59:17 LEJEUNE Nicolas ULTRA TAMALOUS 783 SEM (15 / 20) 12.0
41 02:01:33 RIVRAIS Michel AS ROTO SPORT 781 V2M (8 / 12) 11.8
42 02:02:06 GOUGEON Damien 762 V1M (17 / 26) 11.7
43 02:03:56 BESNARD GAUTHIER Nicole COURIR A SAINT GERVAIS 776 V2F (1 / 1) 11.6
44 02:04:46 GAUTHIER Philippe COURIR A SAINT GERVAIS 777 V3M (1 / 2) 11.5
45 02:05:26 PERIN Thomas FREE SOLOGNE 769 V1M (18 / 26) 11.4
46 02:06:15 CHATEIGNER Jean luc 754 V2M (9 / 12) 11.4
47 02:06:26 GILLARDOT BALESTRO Laetitia USM OLIVET 798 V1F (3 / 4) 11.3
48 02:06:27 HUET Eric AS ROTO SPORT 779 V1M (19 / 26) 11.3
49 02:06:56 DE BONNEFOY Stéphane NEUILLE ATHLÉTISME 816 V1M (20 / 26) 11.3
50 02:07:31 BOURDEAU Sebastien 773 SEM (16 / 20) 11.2